This demonstration page uses our WeatherBlox Daily Observations layout. Learn more.

Left ArrowRight Arrow

Hourly Observations for June 13, 2021

Temp ( °F °C ) Dew Point ( °F °C ) Humidity (%) Winds ( mph kmh ) Pressure ( in mb ) Visibility ( mi km ) Precip ( " mm )
12:15 am 00:15 Mostly Cloudy 55 13 54 12 94 94 N N/A 29.91 1013 10 16 N/A
12:35 am 00:35 Cloudy 54 12 54 12 100 100 N N/A 29.92 1013 10 16 N/A
12:55 am 00:55 Cloudy 54 12 54 12 100 100 N N/A 29.91 1013 10 16 N/A
1:15 am 01:15 Cloudy 54 12 54 12 100 100 N N/A 29.92 1013 10 16 N/A
1:35 am 01:35 Cloudy 54 12 54 12 100 100 N N/A 29.92 1013 10 16 N/A
1:55 am 01:55 Cloudy 54 12 54 12 100 100 N N/A 29.91 1013 10 16 N/A
2:15 am 02:15 Cloudy 54 12 54 12 100 100 N N/A 29.92 1013 10 16 N/A
2:35 am 02:35 Cloudy 54 12 54 12 100 100 N N/A 29.91 1013 10 16 N/A
2:55 am 02:55 Cloudy 54 12 54 12 100 100 N N/A 29.91 1013 10 16 N/A
3:15 am 03:15 Cloudy 52 11 52 11 100 100 N N/A 29.91 1013 10 16 N/A
3:35 am 03:35 Partly Cloudy 52 11 52 11 100 100 N N/A 29.91 1013 10 16 N/A
3:55 am 03:55 Partly Cloudy 52 11 52 11 100 100 N N/A 29.90 1013 10 16 N/A
4:15 am 04:15 Clear 52 11 52 11 100 100 ESE 3 6 29.90 1013 10 16 N/A
4:35 am 04:35 Clear 52 11 52 11 100 100 SSE 3 6 29.90 1013 10 16 N/A
4:55 am 04:55 Partly Cloudy 50 10 50 10 100 100 N N/A 29.92 1013 10 16 N/A
5:15 am 05:15 Cloudy 52 11 52 11 100 100 N N/A 29.91 1013 10 16 N/A
5:35 am 05:35 Cloudy 52 11 52 11 100 100 N N/A 29.91 1013 10 16 N/A
5:55 am 05:55 Cloudy 52 11 52 11 100 100 N N/A 29.92 1013 10 16 N/A
6:15 am 06:15 Cloudy 52 11 52 11 100 100 N N/A 29.92 1013 10 16 N/A
6:35 am 06:35 Cloudy 52 11 52 11 100 100 N N/A 29.93 1014 10 16 N/A
6:55 am 06:55 Cloudy 52 11 52 11 100 100 N N/A 29.93 1014 10 16 N/A
7:15 am 07:15 Cloudy 52 11 52 11 100 100 N N/A 29.94 1014 10 16 N/A
7:35 am 07:35 Cloudy 52 11 52 11 100 100 SSE 3 6 29.94 1014 10 16 N/A
7:55 am 07:55 Cloudy 54 12 54 12 100 100 S 5 7 29.93 1014 10 16 N/A
8:15 am 08:15 Cloudy 54 12 54 12 100 100 SSW 5 7 29.94 1014 10 16 N/A
8:35 am 08:35 Cloudy 55 13 54 12 94 94 S 7 11 29.94 1014 10 16 N/A
8:55 am 08:55 Cloudy 57 14 54 12 88 88 SSW 10 17 29.93 1014 10 16 N/A
9:15 am 09:15 Cloudy 59 15 55 13 88 88 S 5 7 29.94 1014 10 16 N/A
9:35 am 09:35 Cloudy 61 16 55 13 83 83 S 8 13 29.94 1014 10 16 N/A
9:55 am 09:55 Cloudy 61 16 55 13 83 83 S 6 9 29.94 1014 10 16 N/A
10:15 am 10:15 Mostly Cloudy 63 17 55 13 77 77 S 10 17 29.93 1013 10 16 N/A
10:35 am 10:35 Mostly Cloudy 64 18 57 14 78 78 S 10 17 29.92 1013 10 16 N/A
10:55 am 10:55 Cloudy 68 20 57 14 69 69 SSW 9 15 29.92 1013 10 16 N/A
11:15 am 11:15 Cloudy 66 19 57 14 73 73 S 8 13 29.93 1014 10 16 N/A
11:35 am 11:35 Cloudy 68 20 59 15 73 73 SSW 10 17 29.93 1014 10 16 N/A
11:55 am 11:55 Cloudy 68 20 59 15 73 73 SSW 9 15 29.92 1013 10 16 N/A
12:15 pm 12:15 Cloudy 70 21 59 15 69 69 WSW 8 13 29.91 1013 10 16 N/A
12:35 pm 12:35 Cloudy 70 21 59 15 69 69 SW 10 17 29.92 1013 10 16 N/A
12:55 pm 12:55 Cloudy 72 22 61 16 69 69 SSW 8 13 29.93 1013 10 16 N/A
1:15 pm 13:15 Cloudy with Nearby Thunderstorms 70 21 61 16 73 73 WNW 6 9 29.94 1014 10 16 N/A
1:35 pm 13:35 Cloudy with Heavy Thunderstorms 64 18 61 16 88 88 NNW 5 7 29.94 1014 1 1 N/A
1:55 pm 13:55 Mostly Cloudy with Light Thunderstorms 61 16 61 16 100 100 N N/A 29.93 1013 10 16 N/A
2:15 pm 14:15 Mostly Cloudy with Light Rain 61 16 61 16 100 100 SSE 8 13 29.92 1013 10 16 N/A
2:35 pm 14:35 Partly Cloudy 63 17 59 15 88 88 SE 6 9 29.90 1012 10 16 N/A
2:55 pm 14:55 Mostly Cloudy with Light Rain 63 17 61 16 94 94 W 3 6 29.91 1013 10 16 N/A
3:15 pm 15:15 Mostly Cloudy with Light Rain 63 17 61 16 94 94 W 3 6 29.90 1012 10 16 N/A
3:35 pm 15:35 Partly Cloudy 63 17 63 17 100 100 SW 3 6 29.90 1012 10 16 N/A
3:55 pm 15:55 Sunny 66 19 63 17 88 88 S 5 7 29.89 1012 10 16 N/A
4:15 pm 16:15 Sunny 68 20 63 17 83 83 SSW 6 9 29.88 1012 10 16 N/A
4:35 pm 16:35 Sunny 70 21 63 17 78 78 SSW 6 9 29.86 1011 10 16 N/A
4:55 pm 16:55 Partly Cloudy 68 20 63 17 83 83 SSW 5 7 29.86 1011 10 16 N/A
5:15 pm 17:15 Partly Cloudy 70 21 63 17 78 78 SSW 5 7 29.86 1011 10 16 N/A
5:35 pm 17:35 Sunny 70 21 63 17 78 78 SSW 5 7 29.86 1011 10 16 N/A
5:55 pm 17:55 Sunny 70 21 63 17 78 78 SSW 5 7 29.85 1011 7 11 N/A
6:15 pm 18:15 Sunny 70 21 63 17 78 78 SW 5 7 29.85 1011 10 16 N/A
6:35 pm 18:35 Sunny 70 21 63 17 78 78 S 7 11 29.83 1010 10 16 N/A
6:55 pm 18:55 Sunny 70 21 63 17 78 78 SSW 3 6 29.84 1010 10 16 N/A
7:15 pm 19:15 Sunny 70 21 63 17 78 78 S 6 9 29.83 1010 10 16 N/A
7:35 pm 19:35 Partly Cloudy 70 21 63 17 78 78 S 6 9 29.83 1010 10 16 N/A
7:55 pm 19:55 Partly Cloudy 70 21 63 17 78 78 S 3 6 29.85 1011 10 16 N/A
8:15 pm 20:15 Partly Cloudy 70 21 63 17 78 78 S 3 6 29.86 1011 10 16 N/A
8:35 pm 20:35 Sunny 68 20 63 17 83 83 S 6 9 29.86 1011 10 16 N/A
8:55 pm 20:55 Mostly Cloudy 68 20 63 17 83 83 S 3 6 29.86 1011 10 16 N/A
9:15 pm 21:15 Cloudy 68 20 63 17 83 83 S 5 7 29.87 1012 10 16 N/A
9:35 pm 21:35 Mostly Cloudy 68 20 63 17 83 83 S 7 11 29.86 1011 10 16 N/A
9:55 pm 21:55 Partly Cloudy 68 20 63 17 83 83 S 6 9 29.86 1011 10 16 N/A
10:15 pm 22:15 Partly Cloudy 68 20 63 17 83 83 SSE 8 13 29.87 1012 10 16 N/A
10:35 pm 22:35 Mostly Cloudy 68 20 63 17 83 83 SSE 6 9 29.89 1012 10 16 N/A
10:55 pm 22:55 Cloudy 68 20 63 17 83 83 S 5 7 29.89 1012 10 16 N/A
11:15 pm 23:15 Cloudy 68 20 63 17 83 83 ESE 5 7 29.88 1012 10 16 N/A
11:35 pm 23:35 Mostly Cloudy 68 20 63 17 83 83 SSE 5 7 29.88 1012 10 16 N/A
11:55 pm 23:55 Partly Cloudy 66 19 63 17 88 88 S 9 15 29.87 1012 10 16 N/A

Powered by AerisWeather